TimeEST,TemperatureF,Dew PointF,Humidity,Sea Level PressureIn,VisibilityMPH,Wind Direction,Wind SpeedMPH,Gust SpeedMPH,PrecipitationIn,Events,Conditions,WindDirDegrees,DateUTC
12:56 AM,18.0,12.9,81,30.48,-9999.0,NE,3.5,-,N/A,,Unknown,40,2013-01-11 05:56:00
1:56 AM,17.1,12.9,84,30.51,-9999.0,NE,6.9,-,N/A,,Unknown,40,2013-01-11 06:56:00
2:56 AM,18.0,12.9,81,30.49,-9999.0,NNE,8.1,-,N/A,,Unknown,30,2013-01-11 07:56:00
3:56 AM,18.0,14.0,84,30.48,-9999.0,North,6.9,-,N/A,,Unknown,350,2013-01-11 08:56:00
4:56 AM,18.0,12.9,81,30.45,-9999.0,North,11.5,-,N/A,,Unknown,350,2013-01-11 09:56:00
5:56 AM,18.0,14.0,84,30.46,-9999.0,NNW,11.5,-,N/A,,Unknown,330,2013-01-11 10:56:00
6:56 AM,18.0,14.0,84,30.46,-9999.0,North,6.9,-,N/A,,Unknown,350,2013-01-11 11:56:00
7:56 AM,17.1,12.9,84,30.49,-9999.0,Variable,3.5,-,N/A,,Unknown,0,2013-01-11 12:56:00
8:56 AM,21.0,15.1,78,30.49,-9999.0,NW,9.2,-,N/A,,Unknown,320,2013-01-11 13:56:00
9:56 AM,21.9,15.1,75,30.47,-9999.0,NE,3.5,-,N/A,,Unknown,40,2013-01-11 14:56:00
10:56 AM,25.0,15.1,66,30.43,-9999.0,Calm,Calm,-,N/A,,Unknown,0,2013-01-11 15:56:00
11:56 AM,27.0,14.0,58,30.38,-9999.0,South,3.5,-,N/A,,Unknown,180,2013-01-11 16:56:00
12:56 PM,28.9,15.1,56,30.35,-9999.0,Variable,4.6,-,N/A,,Unknown,0,2013-01-11 17:56:00
1:56 PM,30.0,12.9,49,30.35,-9999.0,SSE,4.6,-,N/A,,Unknown,150,2013-01-11 18:56:00
2:56 PM,28.9,16.0,58,30.33,-9999.0,Variable,5.8,-,N/A,,Unknown,0,2013-01-11 19:56:00
3:56 PM,28.9,14.0,54,30.30,-9999.0,SE,4.6,-,N/A,,Unknown,130,2013-01-11 20:56:00
4:56 PM,28.0,14.0,56,30.28,-9999.0,Variable,3.5,-,N/A,,Unknown,0,2013-01-11 21:56:00
5:56 PM,28.0,15.1,58,30.28,-9999.0,Variable,3.5,-,N/A,,Unknown,0,2013-01-11 22:56:00
6:56 PM,27.0,15.1,61,30.28,-9999.0,SSE,5.8,-,N/A,,Unknown,150,2013-01-11 23:56:00
7:56 PM,27.0,16.0,63,30.27,-9999.0,Variable,6.9,-,N/A,,Unknown,0,2013-01-12 00:56:00
8:56 PM,26.1,17.1,69,30.25,-9999.0,Variable,6.9,-,N/A,,Unknown,0,2013-01-12 01:56:00
9:56 PM,26.1,15.1,63,30.23,-9999.0,SSE,8.1,-,N/A,,Unknown,150,2013-01-12 02:56:00
10:56 PM,26.1,15.1,63,30.21,-9999.0,Variable,5.8,-,N/A,,Unknown,0,2013-01-12 03:56:00
11:56 PM,26.1,16.0,66,30.20,-9999.0,SSE,5.8,-,N/A,,Unknown,150,2013-01-12 04:56:00